Time,TemperatureF,DewpointF,PressureIn,WindDirection,WindDirectionDegrees,WindSpeedMPH,WindSpeedGustMPH,Humidity,HourlyPrecipIn,Conditions,Clouds,dailyrainin,SoftwareType,DateUTC
2013-05-01 00:02:00,55.0,37.0,29.90,WNW,301,7.0,11.0,50,0.00,,,0.00,,2013-05-01 05:02:00,
2013-05-01 00:11:00,55.0,37.0,29.90,WNW,301,7.0,11.0,50,0.00,,,0.00,,2013-05-01 05:11:00,
2013-05-01 00:21:00,55.0,37.0,29.91,NW,309,8.0,12.0,51,0.00,,,0.00,,2013-05-01 05:21:00,
2013-05-01 00:32:00,55.0,37.0,29.91,NW,326,12.0,17.0,50,0.00,,,0.00,,2013-05-01 05:32:00,
2013-05-01 00:41:00,55.0,37.0,29.91,NW,326,12.0,17.0,50,0.00,,,0.00,,2013-05-01 05:41:00,
2013-05-01 00:52:00,55.0,37.0,29.91,NW,326,12.0,17.0,50,0.00,,,0.00,,2013-05-01 05:52:00,
2013-05-01 01:02:00,54.0,37.0,29.91,NNW,335,11.0,18.0,52,0.00,,,0.00,,2013-05-01 06:02:00,
2013-05-01 01:11:00,54.0,37.0,29.91,NNW,335,11.0,18.0,52,0.00,,,0.00,,2013-05-01 06:11:00,
2013-05-01 01:22:00,53.0,36.0,29.91,NNW,340,13.0,18.0,52,0.00,,,0.00,,2013-05-01 06:22:00,
2013-05-01 01:32:00,53.0,37.0,29.92,NNW,330,8.0,14.0,54,0.00,,,0.00,,2013-05-01 06:32:00,
2013-05-01 01:42:00,53.0,37.0,29.92,NNW,330,8.0,14.0,54,0.00,,,0.00,,2013-05-01 06:42:00,
2013-05-01 01:51:00,52.0,35.0,29.94,NW,323,12.0,19.0,53,0.00,,,0.00,,2013-05-01 06:51:00,
2013-05-01 02:01:00,52.0,35.0,29.94,NW,323,12.0,19.0,53,0.00,,,0.00,,2013-05-01 07:01:00,
2013-05-01 02:11:00,52.0,35.0,29.94,NW,323,12.0,19.0,53,0.00,,,0.00,,2013-05-01 07:11:00,
2013-05-01 02:21:00,52.0,36.0,29.96,NW,316,12.0,17.0,55,0.00,,,0.00,,2013-05-01 07:21:00,
2013-05-01 02:32:00,52.0,37.0,29.98,NW,320,15.0,20.0,56,0.00,,,0.00,,2013-05-01 07:32:00,
2013-05-01 02:42:00,52.0,37.0,29.98,NW,320,15.0,20.0,56,0.00,,,0.00,,2013-05-01 07:42:00,
2013-05-01 02:52:00,51.0,37.0,29.99,NW,317,12.0,17.0,59,0.00,,,0.00,,2013-05-01 07:52:00,
2013-05-01 03:02:00,50.0,36.0,30.00,NNW,333,11.0,16.0,58,0.00,,,0.00,,2013-05-01 08:02:00,
2013-05-01 03:11:00,50.0,36.0,30.00,NNW,333,11.0,16.0,58,0.00,,,0.00,,2013-05-01 08:11:00,
2013-05-01 03:22:00,50.0,36.0,30.00,NNW,333,11.0,16.0,58,0.00,,,0.00,,2013-05-01 08:22:00,
2013-05-01 03:32:00,49.0,36.0,30.00,NNW,330,12.0,14.0,61,0.00,,,0.00,,2013-05-01 08:32:00,
2013-05-01 03:42:00,49.0,36.0,30.00,NNW,330,12.0,14.0,61,0.00,,,0.00,,2013-05-01 08:42:00,
2013-05-01 03:53:00,48.0,36.0,30.01,NNW,331,11.0,15.0,64,0.00,,,0.00,,2013-05-01 08:53:00,
2013-05-01 04:01:00,46.0,38.0,30.01,NW,321,7.0,11.0,73,0.02,,,0.02,,2013-05-01 09:01:00,
2013-05-01 04:12:00,46.0,38.0,30.01,NW,321,7.0,11.0,73,0.02,,,0.02,,2013-05-01 09:12:00,
2013-05-01 04:21:00,45.0,37.0,30.02,NNW,329,3.0,10.0,74,0.03,,,0.03,,2013-05-01 09:21:00,
2013-05-01 04:33:00,45.0,37.0,30.02,NNW,329,3.0,10.0,74,0.03,,,0.03,,2013-05-01 09:33:00,
2013-05-01 04:42:00,45.0,37.0,30.02,NNW,329,3.0,10.0,74,0.03,,,0.03,,2013-05-01 09:42:00,
2013-05-01 04:53:00,44.0,38.0,30.03,WNW,291,5.0,7.0,78,0.08,,,0.08,,2013-05-01 09:53:00,
2013-05-01 05:02:00,44.0,37.0,30.03,NW,321,8.0,17.0,77,0.09,,,0.10,,2013-05-01 10:02:00,
2013-05-01 05:12:00,44.0,37.0,30.03,NW,321,8.0,17.0,77,0.09,,,0.10,,2013-05-01 10:12:00,
2013-05-01 05:22:00,43.0,38.0,30.05,WNW,300,10.0,13.0,81,0.07,,,0.10,,2013-05-01 10:22:00,
2013-05-01 05:33:00,42.0,37.0,30.05,NNW,332,5.0,11.0,82,0.05,,,0.11,,2013-05-01 10:33:00,
2013-05-01 05:42:00,42.0,37.0,30.05,NNW,332,5.0,11.0,82,0.05,,,0.11,,2013-05-01 10:42:00,
2013-05-01 05:52:00,42.0,37.0,30.05,NNW,332,5.0,11.0,82,0.05,,,0.11,,2013-05-01 10:52:00,
2013-05-01 06:02:00,42.0,38.0,30.09,WNW,299,8.0,11.0,86,0.03,,,0.12,,2013-05-01 11:02:00,
2013-05-01 06:11:00,42.0,38.0,30.09,WNW,299,8.0,11.0,86,0.03,,,0.12,,2013-05-01 11:11:00,
2013-05-01 06:22:00,41.0,37.0,30.09,NW,321,14.0,19.0,84,0.04,,,0.14,,2013-05-01 11:22:00,
2013-05-01 06:32:00,40.0,36.0,30.11,WNW,290,8.0,16.0,87,0.07,,,0.17,,2013-05-01 11:32:00,
2013-05-01 06:42:00,40.0,36.0,30.11,WNW,290,8.0,16.0,87,0.07,,,0.17,,2013-05-01 11:42:00,
2013-05-01 06:51:00,39.0,35.0,30.15,WNW,298,11.0,18.0,85,0.09,,,0.21,,2013-05-01 11:51:00,
2013-05-01 07:01:00,38.0,35.0,30.15,NW,318,6.0,9.0,89,0.08,,,0.22,,2013-05-01 12:01:00,
2013-05-01 07:11:00,38.0,35.0,30.15,NW,318,6.0,9.0,89,0.08,,,0.22,,2013-05-01 12:11:00,
2013-05-01 07:21:00,38.0,35.0,30.15,NW,318,6.0,9.0,89,0.08,,,0.22,,2013-05-01 12:21:00,
2013-05-01 07:31:00,38.0,35.0,30.17,WNW,302,7.0,9.0,89,0.07,,,0.24,,2013-05-01 12:31:00,
2013-05-01 07:41:00,38.0,35.0,30.17,WNW,302,7.0,9.0,89,0.07,,,0.24,,2013-05-01 12:41:00,
2013-05-01 07:52:00,38.0,35.0,30.16,NNW,331,7.0,10.0,90,0.05,,,0.25,,2013-05-01 12:52:00,
2013-05-01 08:01:00,38.0,35.0,30.18,NW,313,14.0,21.0,89,0.03,,,0.25,,2013-05-01 13:01:00,
2013-05-01 08:11:00,38.0,35.0,30.18,NW,313,14.0,21.0,89,0.03,,,0.25,,2013-05-01 13:11:00,
2013-05-01 08:21:00,38.0,35.0,30.20,WNW,294,12.0,19.0,89,0.01,,,0.25,,2013-05-01 13:21:00,
2013-05-01 08:32:00,38.0,35.0,30.20,WNW,294,12.0,19.0,89,0.01,,,0.25,,2013-05-01 13:32:00,
2013-05-01 08:42:00,38.0,35.0,30.20,WNW,294,12.0,19.0,89,0.01,,,0.25,,2013-05-01 13:42:00,
2013-05-01 08:52:00,37.0,34.0,30.21,NW,313,16.0,23.0,88,0.00,,,0.25,,2013-05-01 13:52:00,
2013-05-01 09:02:00,37.0,34.0,30.21,NW,323,17.0,25.0,90,0.00,,,0.25,,2013-05-01 14:02:00,
2013-05-01 09:11:00,37.0,34.0,30.21,NW,323,17.0,25.0,90,0.00,,,0.25,,2013-05-01 14:11:00,
2013-05-01 09:21:00,36.0,34.0,30.20,NNW,329,16.0,25.0,92,0.00,,,0.25,,2013-05-01 14:21:00,
2013-05-01 09:32:00,35.0,33.0,30.22,NNW,346,16.0,21.0,92,0.00,,,0.25,,2013-05-01 14:32:00,
2013-05-01 09:42:00,35.0,33.0,30.22,NNW,346,16.0,21.0,92,0.00,,,0.25,,2013-05-01 14:42:00,
2013-05-01 09:52:00,35.0,33.0,30.22,NNW,346,16.0,21.0,92,0.00,,,0.25,,2013-05-01 14:52:00,
2013-05-01 10:01:00,35.0,33.0,30.21,NNW,334,14.0,21.0,93,0.00,,,0.25,,2013-05-01 15:01:00,
2013-05-01 10:11:00,35.0,33.0,30.21,NNW,334,14.0,21.0,93,0.00,,,0.25,,2013-05-01 15:11:00,
2013-05-01 10:21:00,35.0,33.0,30.23,NNW,331,13.0,20.0,92,0.00,,,0.25,,2013-05-01 15:21:00,
2013-05-01 10:33:00,35.0,33.0,30.21,NNW,328,17.0,24.0,92,0.00,,,0.25,,2013-05-01 15:33:00,
2013-05-01 10:43:00,35.0,33.0,30.21,NNW,328,17.0,24.0,92,0.00,,,0.25,,2013-05-01 15:43:00,
2013-05-01 10:53:00,35.0,33.0,30.20,NNW,339,16.0,23.0,92,0.00,,,0.25,,2013-05-01 15:53:00,
2013-05-01 11:03:00,35.0,33.0,30.20,NNW,339,16.0,23.0,92,0.00,,,0.25,,2013-05-01 16:03:00,
2013-05-01 11:12:00,35.0,33.0,30.20,NNW,339,16.0,23.0,92,0.00,,,0.25,,2013-05-01 16:12:00,
2013-05-01 11:22:00,34.0,32.0,30.23,NW,325,14.0,21.0,92,0.00,,,0.25,,2013-05-01 16:22:00,
2013-05-01 11:32:00,34.0,32.0,30.27,WNW,295,15.0,21.0,92,0.00,,,0.25,,2013-05-01 16:32:00,
2013-05-01 11:42:00,34.0,32.0,30.27,WNW,295,15.0,21.0,92,0.00,,,0.25,,2013-05-01 16:42:00,
2013-05-01 11:53:00,34.0,32.0,30.27,NW,322,17.0,22.0,91,0.00,,,0.25,,2013-05-01 16:53:00,
2013-05-01 12:02:00,34.0,32.0,30.28,NNW,328,18.0,25.0,92,0.00,,,0.25,,2013-05-01 17:02:00,
2013-05-01 12:12:00,34.0,32.0,30.28,NNW,328,18.0,25.0,92,0.00,,,0.25,,2013-05-01 17:12:00,
2013-05-01 12:21:00,34.0,32.0,30.28,NNW,328,18.0,25.0,92,0.00,,,0.25,,2013-05-01 17:21:00,
2013-05-01 12:32:00,33.0,31.0,30.27,NW,322,14.0,21.0,93,0.00,,,0.25,,2013-05-01 17:32:00,
2013-05-01 12:42:00,33.0,31.0,30.27,NW,322,14.0,21.0,93,0.00,,,0.25,,2013-05-01 17:42:00,
2013-05-01 12:52:00,33.0,31.0,30.27,NNW,333,15.0,21.0,93,0.00,,,0.25,,2013-05-01 17:52:00,
2013-05-01 13:01:00,32.0,30.0,30.25,NNW,333,8.0,14.0,94,0.00,,,0.25,,2013-05-01 18:01:00,
2013-05-01 13:11:00,32.0,30.0,30.25,NNW,333,8.0,14.0,94,0.00,,,0.25,,2013-05-01 18:11:00,
2013-05-01 13:22:00,32.0,31.0,30.26,NNW,333,10.0,13.0,95,0.00,,,0.25,,2013-05-01 18:22:00,
2013-05-01 13:32:00,32.0,31.0,30.27,NNW,332,10.0,15.0,96,0.00,,,0.25,,2013-05-01 18:32:00,
2013-05-01 13:41:00,32.0,31.0,30.27,NNW,332,10.0,15.0,96,0.00,,,0.25,,2013-05-01 18:41:00,
2013-05-01 13:52:00,32.0,31.0,30.27,NNW,332,10.0,15.0,96,0.00,,,0.25,,2013-05-01 18:52:00,
2013-05-01 14:02:00,32.0,31.0,30.29,NNW,330,13.0,19.0,95,0.01,,,0.26,,2013-05-01 19:02:00,
2013-05-01 14:11:00,32.0,31.0,30.29,NNW,330,13.0,19.0,95,0.01,,,0.26,,2013-05-01 19:11:00,
2013-05-01 14:22:00,33.0,32.0,30.29,NNW,340,15.0,24.0,95,0.02,,,0.27,,2013-05-01 19:22:00,
2013-05-01 14:32:00,33.0,32.0,30.31,NNW,331,15.0,20.0,95,0.02,,,0.27,,2013-05-01 19:32:00,
2013-05-01 14:43:00,33.0,32.0,30.31,NNW,331,15.0,20.0,95,0.02,,,0.27,,2013-05-01 19:43:00,
2013-05-01 14:52:00,32.0,31.0,30.32,NNW,332,13.0,17.0,95,0.01,,,0.27,,2013-05-01 19:52:00,
2013-05-01 15:01:00,32.0,31.0,30.32,NNW,332,13.0,17.0,95,0.01,,,0.27,,2013-05-01 20:01:00,
2013-05-01 15:11:00,32.0,31.0,30.32,NNW,332,13.0,17.0,95,0.01,,,0.27,,2013-05-01 20:11:00,
2013-05-01 15:21:00,33.0,32.0,30.32,NNW,338,7.0,15.0,96,0.02,,,0.28,,2013-05-01 20:21:00,
2013-05-01 15:32:00,34.0,33.0,30.34,NNW,343,7.0,10.0,95,0.01,,,0.28,,2013-05-01 20:32:00,
2013-05-01 15:42:00,34.0,33.0,30.34,NNW,343,7.0,10.0,95,0.01,,,0.28,,2013-05-01 20:42:00,
2013-05-01 15:52:00,34.0,32.0,30.33,NNE,33,4.0,9.0,94,0.01,,,0.28,,2013-05-01 20:52:00,
2013-05-01 16:01:00,34.0,33.0,30.33,ENE,60,0.0,4.0,95,0.00,,,0.28,,2013-05-01 21:01:00,
2013-05-01 16:11:00,34.0,33.0,30.33,ENE,60,0.0,4.0,95,0.00,,,0.28,,2013-05-01 21:11:00,
2013-05-01 16:22:00,34.0,33.0,30.33,ENE,60,0.0,4.0,95,0.00,,,0.28,,2013-05-01 21:22:00,
2013-05-01 16:32:00,35.0,33.0,30.34,ENE,65,2.0,3.0,94,0.00,,,0.28,,2013-05-01 21:32:00,
2013-05-01 16:43:00,35.0,33.0,30.34,ENE,65,2.0,3.0,94,0.00,,,0.28,,2013-05-01 21:43:00,
2013-05-01 16:53:00,35.0,33.0,30.35,NE,56,0.0,1.0,94,0.00,,,0.28,,2013-05-01 21:53:00,
2013-05-01 17:03:00,35.0,33.0,30.37,NNW,338,1.0,3.0,94,0.00,,,0.28,,2013-05-01 22:03:00,
2013-05-01 17:12:00,35.0,33.0,30.37,NNW,338,1.0,3.0,94,0.00,,,0.28,,2013-05-01 22:12:00,
2013-05-01 17:23:00,35.0,34.0,30.36,NNW,328,2.0,4.0,95,0.00,,,0.28,,2013-05-01 22:23:00,
2013-05-01 17:33:00,35.0,34.0,30.36,NNW,328,2.0,4.0,95,0.00,,,0.28,,2013-05-01 22:33:00,
2013-05-01 17:42:00,35.0,34.0,30.36,NNW,328,2.0,4.0,95,0.00,,,0.28,,2013-05-01 22:42:00,
2013-05-01 17:53:00,35.0,33.0,30.37,North,11,5.0,11.0,94,0.01,,,0.28,,2013-05-01 22:53:00,
2013-05-01 18:02:00,34.0,32.0,30.38,NNW,346,10.0,19.0,94,0.01,,,0.28,,2013-05-01 23:02:00,
2013-05-01 18:12:00,34.0,32.0,30.38,NNW,346,10.0,19.0,94,0.01,,,0.28,,2013-05-01 23:12:00,
2013-05-01 18:21:00,34.0,33.0,30.39,NNE,13,4.0,7.0,96,0.02,,,0.30,,2013-05-01 23:21:00,
2013-05-01 18:32:00,35.0,34.0,30.38,ENE,62,6.0,10.0,96,0.02,,,0.31,,2013-05-01 23:32:00,
2013-05-01 18:42:00,35.0,34.0,30.38,ENE,62,6.0,10.0,96,0.02,,,0.31,,2013-05-01 23:42:00,
2013-05-01 18:52:00,35.0,34.0,30.38,ENE,62,6.0,10.0,96,0.02,,,0.31,,2013-05-01 23:52:00,
2013-05-01 19:01:00,35.0,34.0,30.39,ENE,58,4.0,6.0,96,0.02,,,0.31,,2013-05-02 00:01:00,
2013-05-01 19:11:00,35.0,34.0,30.39,ENE,58,4.0,6.0,96,0.02,,,0.31,,2013-05-02 00:11:00,
2013-05-01 19:21:00,36.0,35.0,30.40,ENE,61,3.0,5.0,96,0.01,,,0.31,,2013-05-02 00:21:00,
2013-05-01 19:32:00,36.0,35.0,30.40,ENE,71,3.0,6.0,95,0.00,,,0.31,,2013-05-02 00:32:00,
2013-05-01 19:42:00,36.0,35.0,30.40,ENE,71,3.0,6.0,95,0.00,,,0.31,,2013-05-02 00:42:00,
2013-05-01 19:52:00,36.0,35.0,30.40,ENE,77,4.0,6.0,95,0.00,,,0.31,,2013-05-02 00:52:00,
2013-05-01 20:01:00,36.0,35.0,30.41,ENE,63,2.0,4.0,95,0.00,,,0.31,,2013-05-02 01:01:00,
2013-05-01 20:11:00,36.0,35.0,30.41,ENE,63,2.0,4.0,95,0.00,,,0.31,,2013-05-02 01:11:00,
2013-05-01 20:21:00,36.0,35.0,30.41,ENE,63,2.0,4.0,95,0.00,,,0.31,,2013-05-02 01:21:00,
2013-05-01 20:32:00,36.0,35.0,30.40,ENE,68,2.0,5.0,95,0.00,,,0.31,,2013-05-02 01:32:00,
2013-05-01 20:42:00,36.0,35.0,30.40,ENE,68,2.0,5.0,95,0.00,,,0.31,,2013-05-02 01:42:00,
2013-05-01 20:52:00,36.0,35.0,30.41,ENE,62,0.0,3.0,96,0.00,,,0.31,,2013-05-02 01:52:00,
2013-05-01 21:02:00,36.0,35.0,30.42,North,349,0.0,2.0,96,0.00,,,0.31,,2013-05-02 02:02:00,
2013-05-01 21:12:00,36.0,35.0,30.42,North,349,0.0,2.0,96,0.00,,,0.31,,2013-05-02 02:12:00,
2013-05-01 21:21:00,36.0,35.0,30.42,North,349,0.0,2.0,96,0.00,,,0.31,,2013-05-02 02:21:00,
2013-05-01 21:32:00,36.0,35.0,30.42,NW,304,2.0,2.0,96,0.00,,,0.31,,2013-05-02 02:32:00,
2013-05-01 21:42:00,36.0,35.0,30.42,NW,304,2.0,2.0,96,0.00,,,0.31,,2013-05-02 02:42:00,
2013-05-01 21:51:00,36.0,35.0,30.42,NW,304,2.0,2.0,96,0.00,,,0.31,,2013-05-02 02:51:00,
2013-05-01 22:01:00,36.0,35.0,30.43,NNW,333,3.0,5.0,96,0.00,,,0.31,,2013-05-02 03:01:00,
2013-05-01 22:11:00,36.0,35.0,30.43,NNW,333,3.0,5.0,96,0.00,,,0.31,,2013-05-02 03:11:00,
2013-05-01 22:22:00,36.0,35.0,30.43,NNW,331,3.0,5.0,96,0.00,,,0.31,,2013-05-02 03:22:00,
2013-05-01 22:33:00,36.0,35.0,30.43,NNW,347,3.0,5.0,96,0.00,,,0.31,,2013-05-02 03:33:00,
2013-05-01 22:42:00,36.0,35.0,30.43,NNW,347,3.0,5.0,96,0.00,,,0.31,,2013-05-02 03:42:00,
2013-05-01 22:53:00,36.0,35.0,30.43,NNW,347,3.0,5.0,96,0.00,,,0.31,,2013-05-02 03:53:00,
2013-05-01 23:03:00,37.0,36.0,30.44,NNW,346,4.0,6.0,95,0.00,,,0.31,,2013-05-02 04:03:00,
2013-05-01 23:12:00,37.0,36.0,30.44,NNW,346,4.0,6.0,95,0.00,,,0.31,,2013-05-02 04:12:00,
2013-05-01 23:23:00,37.0,35.0,30.44,NE,41,4.0,8.0,92,0.00,,,0.31,,2013-05-02 04:23:00,
2013-05-01 23:33:00,37.0,35.0,30.44,NNE,26,2.0,4.0,92,0.00,,,0.31,,2013-05-02 04:33:00,
2013-05-01 23:42:00,37.0,35.0,30.44,NNE,26,2.0,4.0,92,0.00,,,0.31,,2013-05-02 04:42:00,
2013-05-01 23:52:00,37.0,35.0,30.45,North,4,3.0,6.0,91,0.00,,,0.31,,2013-05-02 04:52:00,